Location: Port Stanley
(42.6641°N, 81.2156°W)
Time: 00:03:16
(UTC-04:00)

ISS - Visible Passes

Search period start: 27 June 2019 00:00
Search period end: 07 July 2019 00:00
Orbit: 407 x 418 km, 51.6° (Epoch: 27 June)

Date Brightness Start Highest point End Pass type
(mag) Time Alt. Az. Time Alt. Az. Time Alt. Az.
29 Jun -1.2 04:27:34 10° SSE 04:28:39 11° SE 04:29:46 10° ESE visible
30 Jun -3.3 05:12:07 10° SW 05:15:20 51° SE 05:18:33 10° ENE visible
01 Jul -2.5 04:24:09 18° S 04:25:52 29° SE 04:28:47 10° ENE visible
02 Jul -1.7 03:36:26 17° SE 03:36:28 17° SE 03:38:41 10° E visible
02 Jul -3.5 05:09:32 10° WSW 05:12:48 62° NNW 05:16:05 10° NE visible
03 Jul -3.8 04:21:29 26° SW 04:23:13 78° SE 04:26:32 10° ENE visible
04 Jul -3.2 03:33:39 43° SE 03:33:40 43° SE 03:36:51 10° ENE visible
04 Jul -2.3 05:07:24 10° W 05:10:24 31° NNW 05:13:25 10° NE visible
05 Jul -1.5 02:45:46 17° E 02:45:46 17° E 02:46:57 10° E visible
05 Jul -3.0 04:18:34 18° W 04:20:41 45° NNW 04:23:54 10° NE visible
06 Jul -3.8 03:30:38 62° W 03:31:01 73° NNW 03:34:20 10° NE visible
06 Jul -1.5 05:05:30 10° WNW 05:08:07 21° NNW 05:10:42 10° NE visible
